Wind_Speed
16 16 16 16 15 16 16 15 14 14 15 15 15 16 17 17 18 19 20 20 19 19 20 21 21 22 22 21 21 20 20 19 18 16 15 14 13 12 10 9 7 6 6 5
17 17 16 16 16 16 16 16 15 15 15 16 16 17 17 18 18 19 20 21 20 20 20 21 22 22 22 22 22 21 20 20 19 18 16 16 15 13 12 11 9 8 8 7
17 17 17 15 15 16 16 16 17 16 16 18 17 17 18 18 18 19 21 22 21 20 19 20 22 23 23 23 22 22 21 21 20 19 17 16 16 14 13 12 11 10 10 9
18 18 17 15 15 16 16 17 17 17 17 18 18 18 18 18 18 19 20 21 20 20 20 20 21 23 22 22 22 21 21 21 21 20 19 18 17 16 14 13 13 12 11 11
20 19 17 15 15 16 16 16 17 17 17 17 18 18 18 18 19 19 19 20 20 20 20 21 21 22 22 22 22 21 22 21 21 20 19 18 17 16 16 15 14 13 13 12
20 19 17 16 16 16 16 16 17 17 17 17 17 17 18 18 18 18 18 19 19 20 20 21 21 22 22 21 21 21 22 22 22 21 21 20 18 17 16 15 15 15 14 14
20 19 17 16 16 16 15 15 16 16 16 16 16 16 18 19 18 18 19 19 19 19 19 20 21 21 21 21 21 21 22 22 22 22 21 21 20 19 18 17 16 16 16 16
21 19 17 17 17 16 16 15 16 16 15 15 16 17 17 18 18 18 18 18 18 18 19 19 20 20 20 20 20 21 22 22 21 22 21 21 20 20 20 19 18 18 18 18
21 19 19 18 18 17 16 16 16 16 15 15 15 15 16 17 17 17 18 17 17 18 18 19 19 19 20 20 20 20 21 22 21 21 21 21 20 20 20 20 20 19 19 19
21 20 20 19 18 18 17 16 15 15 15 15 14 14 15 16 16 17 18 18 17 17 17 19 19 19 20 20 21 21 21 21 21 21 21 22 22 22 22 22 21 21 21 21
23 21 21 21 19 18 18 17 15 15 15 15 15 15 16 15 16 16 17 18 18 18 18 19 19 18 18 19 20 20 21 21 22 22 22 23 23 23 23 23 23 23 23 23
24 23 23 22 20 19 18 18 17 16 16 15 15 15 15 16 17 17 17 17 18 19 20 20 20 19 19 19 19 20 21 22 23 23 24 24 24 24 25 24 24 24 24 24
26 24 24 23 22 20 19 18 18 17 16 16 16 16 17 17 17 18 18 18 18 19 20 20 20 20 20 21 21 21 22 23 23 24 24 24 24 24 24 24 25 25 25 25
27 25 24 23 23 22 21 20 19 19 18 17 17 17 17 17 18 18 18 19 19 20 21 22 21 21 20 21 21 22 23 23 23 24 24 25 25 24 24 25 25 26 27 27
28 27 25 24 24 23 23 21 21 20 20 19 18 18 18 18 19 19 19 19 19 19 21 21 21 21 20 21 21 22 22 23 23 23 24 24 25 25 25 26 27 27 28 29
30 29 28 26 24 24 24 23 21 21 21 20 20 19 19 19 20 20 20 20 20 20 20 20 20 21 21 21 21 21 22 23 24 24 25 25 26 26 27 28 28 29 29 30
30 29 28 27 25 25 24 23 22 23 22 21 21 21 21 21 21 21 21 21 21 21 21 22 22 22 22 22 22 22 23 24 24 25 25 26 26 27 28 29 29 30 31 31
29 30 29 28 27 26 26 24 23 23 23 23 22 22 21 21 22 22 22 23 23 23 23 23 24 24 23 23 23 24 24 25 25 26 27 27 28 28 28 29 30 31 32 32
29 29 29 29 28 27 27 26 25 24 23 23 24 24 24 23 23 24 24 24 25 25 25 25 25 25 25 25 25 26 26 26 26 27 28 29 29 30 30 31 31 32 33 33
29 29 29 29 29 28 27 27 26 25 24 24 24 24 25 25 24 25 25 25 25 26 27 27 26 26 26 26 27 27 27 28 28 29 29 29 30 30 31 32 33 34 35 35
30 29 28 28 28 28 27 27 27 26 26 25 25 24 25 25 26 26 25 25 26 26 26 27 27 27 27 28 28 28 28 29 29 29 30 30 31 31 32 33 34 35 36 37
30 29 28 27 27 27 27 27 27 27 27 26 26 26 25 25 26 26 27 27 27 27 28 28 28 28 28 28 29 29 30 30 30 30 31 32 32 33 34 34 35 36 38 39
30 29 29 29 28 28 28 28 28 28 29 28 28 28 27 27 27 27 28 28 28 28 29 29 29 30 30 29 29 30 31 31 31 32 33 33 34 34 35 36 37 38 39 40
31 31 30 30 29 29 29 29 28 28 29 30 30 29 29 29 28 28 29 29 29 29 29 30 30 30 31 31 31 31 31 32 33 34 34 35 36 37 38 39 40 40 42 43
31 32 31 31 31 31 30 30 29 28 29 29 29 30 30 30 30 29 29 29 29 29 29 30 30 30 31 31 32 32 33 33 34 35 36 37 38 38 39 41 42 43 43 44
31 32 32 32 31 31 31 31 30 30 29 29 30 30 30 31 30 30 30 30 30 30 30 31 31 32 32 33 33 34 34 35 36 37 37 38 39 40 41 41 42 43 44 45
32 31 31 31 31 31 31 31 32 31 31 31 31 31 31 31 32 32 31 31 31 31 31 32 33 34 34 35 35 35 36 37 38 38 39 40 40 41 42 43 43 44 45 46
Wind_Direction
234 235 234 233 235 236 237 239 238 234 237 240 242 240 237 235 231 226 223 224 223 220 219 218 219 219 217 217 217 218 218 219 221 221 222 221 220 222 223 222 224 228 232 239
233 235 234 235 237 239 240 242 241 238 237 242 243 240 237 236 233 226 222 221 221 221 221 222 221 220 219 218 219 221 221 221 221 222 224 223 222 223 227 229 229 232 239 245
233 235 236 235 237 241 241 239 239 238 237 241 245 240 237 236 234 229 223 221 221 222 223 220 218 218 219 219 220 221 221 220 221 222 225 224 224 227 230 232 235 239 243 248
231 234 238 238 240 243 244 242 242 239 238 242 245 238 234 232 231 229 224 223 223 225 226 221 218 216 218 218 218 219 221 222 222 225 226 224 225 229 232 235 238 240 244 249
230 235 238 239 240 243 244 241 240 238 239 241 242 238 234 233 231 230 228 226 226 227 228 223 219 219 219 219 220 221 223 223 223 225 226 226 228 230 233 236 239 243 247 251
231 235 237 237 240 243 243 238 237 237 239 241 240 233 231 232 231 230 229 226 226 227 228 224 222 221 220 221 221 222 224 226 226 227 228 229 231 234 237 240 243 247 251 254
230 234 234 237 239 241 241 238 235 237 238 239 238 235 234 232 231 229 229 228 229 228 227 225 222 222 222 221 221 223 226 227 228 227 229 231 233 235 239 243 247 251 254 257
229 233 234 237 238 237 239 236 234 236 238 238 236 236 235 232 230 227 225 225 225 224 224 224 223 222 222 223 225 226 228 230 232 229 231 235 236 237 240 244 248 252 255 258
229 232 234 234 234 236 238 236 234 236 238 237 235 234 231 229 227 224 223 223 224 224 224 224 223 223 222 225 228 229 232 234 234 234 234 236 237 240 242 245 249 253 256 259
227 229 229 231 232 233 234 235 234 234 233 234 235 232 231 228 226 224 223 224 225 224 224 223 223 226 227 228 230 232 232 233 234 235 237 238 239 241 244 247 251 255 258 260
228 228 228 229 231 232 234 234 233 232 231 231 233 229 228 229 228 226 225 226 226 225 225 224 223 226 229 231 234 234 235 236 236 238 240 242 243 244 246 249 253 256 259 262
225 226 228 227 231 231 231 231 231 231 232 233 234 232 231 228 226 226 227 228 227 226 226 224 226 228 229 231 234 235 236 238 239 240 242 244 246 248 250 252 256 258 260 263
223 226 228 227 229 229 228 227 228 230 232 234 234 235 232 230 229 228 228 227 227 227 226 226 228 231 231 232 235 237 239 240 241 242 244 245 248 250 252 254 255 258 260 263
224 226 228 228 229 229 230 229 231 234 236 236 236 235 234 232 230 230 230 226 225 226 227 229 230 232 234 236 238 241 242 244 245 245 246 248 250 251 253 256 258 260 263 265
224 226 228 228 228 230 231 231 232 234 236 237 234 233 235 234 232 232 232 230 227 227 228 229 230 233 236 240 241 243 245 247 248 249 250 251 252 254 256 258 260 262 264 266
224 226 227 227 227 229 231 232 234 235 237 237 234 234 235 236 236 235 234 234 233 232 231 232 234 238 241 244 245 247 249 250 251 252 254 255 255 257 259 260 263 265 266 268
223 225 228 227 227 229 231 233 234 235 237 240 238 237 238 239 239 238 238 238 237 236 236 236 237 240 242 244 246 248 251 254 255 256 257 258 259 261 262 263 265 267 268 270
223 224 225 226 228 229 231 234 236 237 239 241 241 241 241 241 241 241 241 241 242 241 241 240 241 243 245 247 249 251 254 255 256 258 259 260 261 263 265 267 268 269 271 272
222 223 224 227 229 229 232 235 237 238 240 241 241 242 242 242 243 243 243 243 243 242 242 244 246 247 249 251 252 254 255 257 259 260 262 262 264 266 267 269 271 272 274 275
223 224 226 227 229 230 232 235 237 239 240 241 243 244 244 244 246 246 245 245 244 243 245 248 249 250 252 254 255 255 257 259 261 261 263 264 265 267 269 271 272 275 276 277
223 225 227 229 230 231 233 235 237 240 242 243 244 245 246 246 246 246 246 247 247 247 248 250 252 253 255 256 257 258 259 261 262 263 263 264 266 268 271 272 274 276 277 278
223 225 227 229 230 231 234 236 238 240 242 243 244 245 247 247 247 248 250 249 249 250 252 253 254 255 257 258 259 260 262 263 264 265 266 267 268 271 272 274 276 278 279 280
224 226 228 231 233 234 236 239 241 242 243 244 245 246 247 248 249 251 251 251 251 251 252 254 256 257 258 259 261 263 264 265 266 267 268 269 271 273 274 276 278 279 280 282
227 229 231 233 235 237 239 240 241 242 243 243 245 247 249 249 251 252 254 254 254 254 255 255 257 258 259 260 262 264 265 266 268 269 270 272 275 276 277 278 279 281 282 283
227 229 231 234 237 240 241 242 242 243 243 244 246 248 249 250 252 254 255 256 257 258 258 259 260 261 262 263 264 266 268 269 270 271 272 274 276 277 278 279 280 282 284 285
227 230 232 235 237 240 241 242 243 244 246 246 248 249 250 251 252 254 256 257 258 258 259 260 262 264 265 266 267 268 270 271 272 274 275 276 277 278 279 281 282 283 284 286
230 233 235 237 239 240 242 242 243 245 246 247 248 249 250 251 253 254 256 258 259 261 262 263 264 265 267 268 270 271 272 274 275 275 276 277 279 280 281 282 283 284 285 286
Height
5812 5813 5815 5817 5818 5820 5822 5824 5825 5827 5828 5829 5829 5831 5832 5834 5836 5838 5841 5844 5847 5850 5852 5855 5858 5861 5864 5867 5870 5873 5876 5878 5881 5883 5885 5886 5888 5889 5890 5891 5892 5892 5892 5892
5808 5809 5811 5813 5815 5816 5818 5819 5821 5822 5824 5824 5825 5826 5828 5830 5832 5835 5837 5840 5843 5846 5849 5851 5854 5858 5860 5864 5867 5870 5872 5875 5878 5880 5882 5884 5885 5887 5888 5889 5890 5890 5891 5891
5804 5806 5807 5810 5811 5812 5813 5815 5816 5818 5820 5820 5821 5822 5824 5826 5828 5831 5833 5836 5839 5842 5845 5847 5850 5853 5857 5860 5863 5866 5869 5872 5875 5877 5879 5881 5883 5885 5886 5887 5888 5888 5889 5889
5800 5802 5804 5809 5807 5808 5809 5810 5812 5813 5815 5816 5817 5818 5820 5822 5825 5827 5830 5833 5836 5838 5841 5843 5846 5849 5853 5856 5859 5862 5865 5868 5871 5874 5876 5878 5880 5882 5883 5884 5885 5886 5886 5886
5796 5797 5800 5803 5803 5803 5805 5806 5807 5809 5810 5811 5812 5814 5816 5819 5821 5823 5826 5829 5831 5834 5837 5839 5842 5845 5849 5852 5855 5858 5862 5864 5867 5870 5872 5874 5876 5878 5880 5881 5882 5883 5883 5884
5791 5793 5796 5799 5799 5799 5801 5803 5803 5804 5806 5807 5809 5811 5813 5815 5817 5820 5822 5825 5828 5830 5833 5836 5839 5842 5845 5848 5851 5854 5857 5860 5863 5866 5868 5870 5872 5874 5876 5877 5878 5879 5880 5880
5786 5788 5791 5794 5794 5795 5798 5800 5800 5800 5802 5803 5805 5807 5809 5811 5813 5816 5818 5821 5823 5826 5829 5832 5835 5838 5841 5844 5848 5850 5853 5856 5859 5861 5864 5866 5868 5870 5872 5873 5874 5875 5876 5876
5781 5784 5789 5789 5790 5792 5793 5794 5795 5796 5798 5800 5801 5802 5804 5807 5809 5812 5814 5817 5819 5822 5825 5828 5831 5834 5837 5841 5843 5846 5849 5852 5854 5857 5859 5861 5863 5865 5867 5869 5870 5871 5871 5872
5777 5781 5782 5783 5785 5787 5788 5790 5791 5793 5794 5796 5797 5799 5800 5803 5805 5808 5811 5813 5816 5819 5821 5824 5827 5830 5833 5836 5839 5842 5845 5847 5850 5852 5854 5857 5859 5861 5862 5863 5865 5865 5866 5867
5771 5774 5776 5778 5780 5782 5784 5786 5787 5789 5791 5792 5794 5795 5797 5800 5802 5805 5807 5810 5813 5815 5818 5821 5824 5827 5829 5832 5835 5837 5840 5843 5845 5847 5849 5851 5853 5855 5857 5858 5859 5860 5860 5861
5765 5769 5771 5773 5775 5777 5780 5782 5784 5786 5787 5789 5790 5792 5794 5796 5799 5801 5804 5806 5809 5812 5814 5817 5820 5823 5825 5828 5830 5833 5835 5838 5840 5842 5844 5846 5847 5849 5850 5852 5853 5854 5854 5855
5760 5763 5766 5769 5771 5773 5775 5777 5779 5782 5784 5785 5787 5789 5790 5792 5795 5797 5800 5802 5805 5808 5810 5813 5816 5819 5821 5823 5826 5828 5830 5832 5834 5836 5838 5840 5841 5843 5844 5845 5846 5847 5848 5848
5754 5757 5760 5763 5766 5768 5771 5773 5775 5778 5780 5781 5783 5785 5787 5789 5791 5793 5796 5798 5800 5803 5806 5809 5811 5814 5816 5819 5821 5823 5825 5827 5828 5830 5832 5833 5835 5836 5837 5839 5839 5840 5840 5841
5747 5751 5754 5757 5760 5763 5766 5768 5770 5773 5775 5777 5779 5781 5783 5785 5787 5789 5791 5793 5796 5798 5801 5804 5806 5809 5811 5813 5815 5817 5819 5821 5822 5824 5826 5827 5828 5829 5830 5831 5832 5832 5833 5833
5741 5745 5749 5751 5754 5757 5760 5763 5765 5768 5770 5772 5774 5776 5778 5780 5783 5785 5787 5789 5791 5793 5796 5798 5801 5803 5805 5807 5809 5811 5813 5815 5816 5818 5819 5820 5821 5822 5823 5824 5824 5824 5825 5825
5735 5738 5742 5745 5749 5752 5755 5757 5760 5763 5765 5767 5769 5771 5773 5775 5778 5779 5782 5784 5786 5788 5791 5793 5796 5798 5800 5802 5803 5805 5807 5808 5810 5811 5812 5813 5813 5814 5815 5816 5816 5816 5816 5816
5728 5731 5735 5739 5743 5746 5749 5751 5754 5757 5759 5762 5764 5766 5768 5770 5772 5774 5776 5778 5781 5783 5785 5787 5790 5791 5793 5795 5797 5799 5800 5801 5802 5803 5804 5805 5806 5806 5807 5807 5807 5807 5807 5806
5721 5725 5728 5732 5736 5740 5743 5745 5748 5751 5753 5755 5758 5760 5762 5764 5766 5768 5770 5772 5774 5777 5779 5781 5783 5785 5787 5789 5790 5791 5793 5794 5795 5796 5796 5797 5797 5798 5798 5798 5798 5797 5797 5796
5714 5718 5722 5725 5729 5733 5736 5739 5741 5744 5747 5749 5751 5753 5755 5757 5760 5762 5764 5766 5768 5770 5772 5774 5776 5778 5780 5781 5782 5784 5785 5786 5786 5787 5788 5788 5788 5789 5789 5789 5788 5788 5787 5786
5707 5711 5715 5718 5722 5726 5729 5732 5735 5737 5740 5742 5744 5747 5748 5750 5753 5755 5757 5758 5760 5762 5765 5767 5768 5770 5772 5773 5774 5775 5777 5777 5778 5778 5778 5779 5779 5779 5779 5778 5778 5777 5776 5775
5700 5704 5708 5711 5715 5718 5721 5724 5727 5730 5733 5735 5737 5740 5742 5743 5745 5747 5749 5751 5753 5755 5757 5759 5760 5762 5763 5765 5766 5767 5767 5768 5768 5769 5769 5769 5769 5769 5769 5768 5767 5766 5765 5764
5693 5697 5701 5704 5708 5711 5714 5717 5720 5723 5725 5728 5730 5732 5734 5736 5738 5740 5742 5744 5745 5747 5749 5750 5752 5753 5754 5755 5756 5757 5758 5759 5759 5759 5759 5759 5759 5759 5758 5757 5756 5755 5753 5752
5686 5690 5694 5697 5701 5704 5707 5710 5712 5715 5717 5720 5722 5724 5727 5728 5730 5732 5734 5735 5737 5739 5740 5742 5743 5744 5745 5746 5747 5748 5748 5749 5749 5749 5749 5749 5748 5747 5747 5746 5744 5743 5741 5739
5679 5683 5686 5690 5693 5696 5699 5701 5704 5707 5709 5712 5714 5716 5718 5720 5722 5724 5725 5727 5728 5730 5731 5732 5734 5735 5735 5736 5737 5737 5738 5738 5738 5738 5738 5737 5737 5736 5735 5733 5732 5730 5728 5726
5671 5675 5679 5682 5685 5688 5691 5693 5696 5698 5701 5704 5706 5708 5710 5712 5714 5715 5717 5718 5719 5721 5722 5723 5724 5725 5725 5726 5726 5727 5727 5727 5727 5727 5726 5725 5724 5723 5722 5720 5718 5716 5714 5712
5664 5667 5671 5674 5677 5680 5683 5685 5688 5690 5693 5695 5697 5699 5701 5703 5705 5706 5708 5709 5710 5711 5713 5713 5714 5714 5715 5715 5715 5715 5715 5715 5715 5714 5713 5712 5711 5710 5708 5706 5704 5702 5700 5697
5656 5659 5662 5665 5669 5671 5674 5677 5679 5681 5684 5686 5688 5690 5692 5693 5695 5697 5698 5700 5701 5701 5702 5703 5703 5704 5704 5704 5704 5704 5703 5703 5702 5701 5700 5699 5697 5696 5694 5692 5689 5687 5684 5681